Shreveport, LA

1:36 PM CDT on April 29, 2017 (GMT -0500)
Shreveport Regional

Weather History for KSHV - March, 2013

Change the Weather History Date:

Saturday, March 30, 2013

  Actual Average Record
Temperature  
Mean Temperature 66 °F 61 °F  
Max Temperature 74 °F 73 °F 91 °F (1946)
Min Temperature 57 °F 49 °F 32 °F (1987)
Degree Days  
Heating Degree Days 0 5  
Month to date heating degree days 304 245  
Since 1 July heating degree days 1918 2127  
Cooling Degree Days 1 2  
Month to date cooling degree days 17 29  
Year to date cooling degree days 25 39  
Growing Degree Days 16 (Base 50)    
Moisture  
Dew Point 59 °F    
Average Humidity 83    
Maximum Humidity 100    
Minimum Humidity 66    
Precipitation  
Precipitation 1.58 in 0.14 in 3.72 in (1932)
Month to date precipitation 2.72 3.99  
Year to date precipitation 10.16 12.94  
Snow  
Snow 0.00 in - - ()
Month to date snowfall 0.0  
Since 1 July snowfall 0.1  
Snow Depth 0.00 in    
Sea Level Pressure  
Sea Level Pressure 30.04 in    
Wind  
Wind Speed 7 mph (SSW)    
Max Wind Speed 49 mph    
Max Gust Speed 63 mph    
Visibility 7 miles    
Events Fog , Rain , Hail , Thunderstorm    
T = Trace of Precipitation, MM = Missing Value Source: NWS Daily Summary

Daily Weather History Graph

Daily Weather History Graph

Search for Another Location

Airport or City:

Trip Planner

Search our weather history database for the weather conditions in past years. The results will help you decide how hot, cold, wet, or windy it might be!

Date:

Astronomy

Mar. 30, 2013 Rise Set
Actual Time 7:05 AM CDT 7:34 PM CDT
Civil Twilight 6:41 AM CDT 7:58 PM CDT
Nautical Twilight 6:12 AM CDT 8:27 PM CDT
Astronomical Twilight 5:42 AM CDT 8:57 PM CDT
Moon 11:27 PM CDT (3/30) 9:14 AM CDT (3/30)
Length of Visible Light 13h 17m
Length of Day
12h 28m
Waning Gibbous, 86% of the Moon is Illuminated
Mar 30
Waning Gibbous
Apr 2
Last Quarter
Apr 10
New
Apr 18
First Quarter
Apr 25
Full

Hourly Weather History & Observations

Time (CDT) Temp. Dew Point Humidity Pressure Visibility Wind Dir Wind Speed Gust Speed Precip Events Conditions
12:56 AM 59.0 °F 55.0 °F 87% 30.10 in 7.0 mi South 4.6 mph - N/A   Overcast
1:56 AM 61.0 °F 55.9 °F 83% 30.10 in 8.0 mi South 6.9 mph - N/A   Overcast
2:56 AM 61.0 °F 57.0 °F 87% 30.06 in 8.0 mi South 8.1 mph - N/A   Overcast
3:56 AM 61.0 °F 57.0 °F 87% 30.03 in 9.0 mi SSE 8.1 mph - N/A   Overcast
4:56 AM 60.1 °F 57.9 °F 93% 30.05 in 9.0 mi South 4.6 mph - 0.00 in Rain Light Rain
5:56 AM 60.1 °F 57.9 °F 93% 30.08 in 8.0 mi Calm Calm - 0.02 in Rain Light Rain
6:03 AM 60.8 °F 57.2 °F 88% 30.09 in 7.0 mi WSW 3.5 mph - 0.00 in Rain Light Rain
6:34 AM 60.8 °F 57.2 °F 88% 30.09 in 4.0 mi South 3.5 mph - 0.03 in Rain Rain
6:41 AM 60.8 °F 59.0 °F 94% 30.09 in 3.0 mi South 4.6 mph - 0.04 in Rain Rain
6:56 AM 60.1 °F 59.0 °F 96% 30.09 in 2.0 mi South 4.6 mph - 0.07 in Rain Rain
7:04 AM 60.8 °F 59.0 °F 94% 30.09 in 1.2 mi SW 6.9 mph - 0.17 in Rain Heavy Rain
7:12 AM 60.8 °F 59.0 °F 94% 30.09 in 2.0 mi SSW 4.6 mph - 0.24 in Rain Heavy Rain
7:22 AM 60.8 °F 59.0 °F 94% 30.07 in 2.5 mi SSE 6.9 mph - 0.29 in Rain Rain
7:26 AM 60.8 °F 59.0 °F 94% 30.07 in 3.0 mi SSE 11.5 mph - 0.31 in Rain Rain
7:36 AM 60.8 °F 59.0 °F 94% 30.05 in 5.0 mi SE 9.2 mph - 0.33 in Rain Rain
7:56 AM 60.1 °F 59.0 °F 96% 30.05 in 5.0 mi SE 9.2 mph - 0.37 in Rain Rain
8:12 AM 60.8 °F 59.0 °F 94% 30.06 in 4.0 mi SE 8.1 mph - 0.03 in Rain Light Rain
8:19 AM 60.8 °F 59.0 °F 94% 30.06 in 5.0 mi SSE 8.1 mph - 0.03 in Rain Light Rain
8:27 AM 60.8 °F 59.0 °F 94% 30.06 in 7.0 mi South 10.4 mph - 0.03 in   Overcast
8:49 AM 60.8 °F 59.0 °F 94% 30.07 in 9.0 mi SSW 8.1 mph - 0.03 in   Overcast
8:56 AM 61.0 °F 59.0 °F 93% 30.06 in 10.0 mi SSW 9.2 mph - 0.03 in   Overcast
9:13 AM 60.8 °F 59.0 °F 94% 30.07 in 10.0 mi SSW 12.7 mph - N/A   Mostly Cloudy
9:46 AM 62.6 °F 59.0 °F 88% 30.07 in 10.0 mi SSW 9.2 mph - N/A   Overcast
9:56 AM 62.1 °F 59.0 °F 90% 30.08 in 10.0 mi WSW 8.1 mph - N/A   Overcast
10:03 AM 62.6 °F 59.0 °F 88% 30.09 in 10.0 mi West 6.9 mph - N/A   Overcast
10:27 AM 62.6 °F 59.0 °F 88% 30.08 in 10.0 mi SW 8.1 mph - 0.00 in   Overcast
10:38 AM 62.6 °F 59.0 °F 88% 30.07 in 10.0 mi SSW 6.9 mph - 0.00 in Rain Light Rain
10:56 AM 63.0 °F 59.0 °F 87% 30.06 in 10.0 mi WSW 8.1 mph - 0.00 in   Mostly Cloudy
11:23 AM 64.4 °F 60.8 °F 88% 30.05 in 10.0 mi SW 11.5 mph 19.6 mph N/A   Overcast
11:41 AM 66.2 °F 60.8 °F 83% 30.05 in 10.0 mi WSW 19.6 mph 25.3 mph N/A   Overcast
11:56 AM 68.0 °F 61.0 °F 78% 30.05 in 10.0 mi WSW 15.0 mph 28.8 mph N/A   Overcast
12:56 PM 71.1 °F 60.1 °F 68% 30.03 in 10.0 mi WSW 17.3 mph 25.3 mph N/A   Mostly Cloudy
1:16 PM 73.4 °F 60.8 °F 65% 30.02 in 10.0 mi SW 11.5 mph 23.0 mph N/A   Mostly Cloudy
1:26 PM 73.4 °F 60.8 °F 65% 30.03 in 10.0 mi WSW 16.1 mph 20.7 mph N/A   Mostly Cloudy
1:56 PM 72.0 °F 59.0 °F 64% 30.00 in 10.0 mi SSW 5.8 mph - N/A   Overcast
2:05 PM 71.6 °F 59.0 °F 64% 29.99 in 10.0 mi South 9.2 mph - N/A Thunderstorm Thunderstorm
2:30 PM 69.8 °F 60.8 °F 73% 30.01 in 2.0 mi North 13.8 mph 19.6 mph 0.00 in Rain , Thunderstorm Light Thunderstorms and Rain
2:32 PM 68.0 °F 60.8 °F 78% 30.04 in 0.5 mi NNW 31.1 mph 50.6 mph 0.02 in Rain , Thunderstorm Heavy Thunderstorms and Rain
2:34 PM 64.4 °F 60.8 °F 88% 30.10 in 0.1 mi NW 49.5 mph 63.3 mph 0.07 in Fog , Rain , Thunderstorm Heavy Thunderstorms with Small Hail
2:36 PM 60.8 °F 57.2 °F 88% 30.08 in 0.1 mi NW 34.5 mph 63.3 mph 0.13 in Fog , Rain , Hail , Thunderstorm Heavy Thunderstorms with Hail
2:45 PM 59.0 °F 57.2 °F 94% 30.02 in 2.0 mi South 16.1 mph 38.0 mph 1.08 in Rain , Thunderstorm Heavy Thunderstorms and Rain
2:50 PM 60.8 °F 57.2 °F 88% 30.02 in 5.0 mi South 16.1 mph - 1.08 in Rain , Thunderstorm Light Thunderstorms and Rain
2:56 PM 61.0 °F 59.0 °F 93% 30.00 in 7.0 mi South 13.8 mph 19.6 mph 1.08 in Rain , Thunderstorm Light Thunderstorms and Rain
3:03 PM 60.8 °F 59.0 °F 94% 30.01 in 10.0 mi SSE 10.4 mph 20.7 mph 0.00 in Thunderstorm Thunderstorm
3:11 PM 64.4 °F 60.8 °F 88% 30.01 in 10.0 mi SSE 11.5 mph - 0.00 in   Mostly Cloudy
3:56 PM 70.0 °F 62.1 °F 76% 29.98 in 10.0 mi SSE 4.6 mph - 0.00 in   Mostly Cloudy
4:56 PM 69.1 °F 64.0 °F 84% 29.94 in 10.0 mi South 5.8 mph - 0.01 in Rain Light Rain
5:56 PM 72.0 °F 62.1 °F 71% 29.94 in 10.0 mi Calm Calm - 0.00 in   Mostly Cloudy
6:56 PM 72.0 °F 62.1 °F 71% 29.93 in 10.0 mi Calm Calm - N/A   Partly Cloudy
7:56 PM 66.0 °F 62.1 °F 87% 29.93 in 8.0 mi Calm Calm - N/A   Partly Cloudy
8:56 PM 63.0 °F 62.1 °F 97% 29.94 in 7.0 mi Calm Calm - N/A   Clear
9:56 PM 60.1 °F 59.0 °F 96% 29.95 in 7.0 mi South 3.5 mph - N/A   Clear
10:56 PM 62.1 °F 57.9 °F 86% 29.95 in 7.0 mi South 5.8 mph - N/A   Scattered Clouds
11:56 PM 64.9 °F 60.1 °F 84% 29.95 in 10.0 mi SSW 8.1 mph - N/A   Scattered Clouds